Date String (YYYY-MM-DD hh:mm:ss) UTC,Instrument flags,Ambient pressure (hPa),Sample flow (lpm),Bypass flow (lpm),Sample temperature (°C),Ambient temperature (°C),ASC tube jacket temperature (°C),LED temperature (°C),Box temperature (°C),Sample RH (%),Span deviation,Mass concentration (μg/m³),Mass concentration (μg/m³),Mass concentration (μg/m³)
DateTimeUTC,F1_M11,P_M11,Q1_M11,Q2_M11,T1_M11,T2_M11,T3_M11,T4_M11,T5_M11,U1_M11,ZSPAN_M11,X0_M11,X2_M11,X1_M11
2022-09-16 05:00:00,,0828.3,5.01,0.00,30.3,29.0,00.0,39.0,32.1,26.4,0000.0,0015.13,0004.19,0003.24
2022-09-16 05:01:00,,0828.3,5.00,0.00,30.3,29.0,00.0,39.0,32.1,26.3,0000.0,0015.39,0004.22,0003.23
2022-09-16 05:02:00,,0828.3,5.00,0.00,30.3,29.0,00.0,39.0,32.1,25.9,0000.0,0014.97,0004.21,0003.21
2022-09-16 05:03:00,,0828.2,5.00,0.00,30.3,29.0,00.0,39.0,32.2,25.8,0000.0,0014.09,0004.17,0003.20
2022-09-16 05:04:00,,0828.3,4.99,0.00,30.3,29.1,00.0,39.0,32.2,25.7,0000.0,0014.04,0004.17,0003.18
2022-09-16 05:05:00,,0828.2,5.01,0.00,30.3,29.1,00.0,39.0,32.2,25.7,0000.0,0013.71,0004.19,0003.17
2022-09-16 05:06:00,,0828.2,4.99,0.00,30.4,29.1,00.0,39.1,32.2,25.4,0000.0,0014.18,0004.19,0003.16
2022-09-16 05:07:00,,0828.3,4.99,0.00,30.4,29.1,00.0,39.1,32.2,25.3,0000.0,0014.06,0004.21,0003.16
2022-09-16 05:08:00,,0828.2,5.01,0.00,30.4,29.1,00.0,39.1,32.2,25.0,0000.0,0014.00,0004.22,0003.15
2022-09-16 05:09:00,,0828.2,4.99,0.00,30.4,29.1,00.0,39.1,32.2,25.1,0000.0,0013.84,0004.12,0003.14
2022-09-16 05:10:00,,0828.2,5.01,0.00,30.4,29.1,00.0,39.1,32.3,25.1,0000.0,0014.08,0004.09,0003.12
2022-09-16 05:11:00,,0828.2,5.00,0.00,30.4,29.2,00.0,39.1,32.3,24.9,0000.0,0014.27,0004.09,0003.10
2022-09-16 05:12:00,,0828.2,5.00,0.00,30.4,29.2,00.0,39.2,32.3,24.8,0000.0,0014.60,0004.08,0003.06
2022-09-16 05:13:00,,0828.2,5.00,0.00,30.5,29.2,00.0,39.2,32.3,25.1,0000.0,0014.89,0004.09,0003.05
2022-09-16 05:14:00,,0828.2,5.01,0.00,30.5,29.2,00.0,39.2,32.3,25.2,0000.0,0014.26,0004.09,0003.06
2022-09-16 05:15:00,,0828.3,5.00,0.00,30.5,29.2,00.0,39.2,32.3,25.5,0000.0,0013.75,0004.10,0003.08
2022-09-16 05:16:00,,0828.2,5.01,0.00,30.5,29.2,00.0,39.2,32.3,25.6,0000.0,0013.97,0004.12,0003.06
2022-09-16 05:17:00,,0828.2,4.98,0.00,30.5,29.2,00.0,39.2,32.4,25.2,0000.0,0013.05,0004.09,0003.04
2022-09-16 05:18:00,,0828.2,5.01,0.00,30.5,29.2,00.0,39.2,32.4,24.7,0000.0,0012.93,0004.05,0003.00
2022-09-16 05:19:00,,0828.2,5.00,0.00,30.5,29.2,00.0,39.2,32.4,24.4,0000.0,0013.02,0004.01,0002.96
2022-09-16 05:20:00,,0828.3,5.00,0.00,30.6,29.3,00.0,39.3,32.4,24.8,0000.0,0013.51,0004.03,0002.96
2022-09-16 05:21:00,,0828.2,5.00,0.00,30.6,29.2,00.0,39.3,32.4,25.3,0000.0,0013.36,0004.07,0002.97
2022-09-16 05:22:00,,0828.2,5.00,0.00,30.6,28.0,00.0,39.3,32.4,25.4,0000.0,0012.79,0004.05,0002.99
2022-09-16 05:23:00,,0828.2,5.00,0.00,30.5,26.9,00.0,39.2,32.2,25.0,0000.0,0012.04,0003.98,0003.02
2022-09-16 05:24:00,,0828.2,4.99,0.00,30.4,26.7,00.0,39.1,32.0,24.7,0000.0,0011.82,0003.97,0003.02
2022-09-16 05:25:00,,0828.2,4.99,0.00,30.3,26.9,00.0,39.1,31.8,24.7,0000.0,0012.56,0003.94,0002.98
2022-09-16 05:26:00,,0828.1,5.00,0.00,30.2,27.3,00.0,39.0,31.8,24.7,0000.0,0012.26,0003.91,0002.95
2022-09-16 05:27:00,,0828.3,5.01,0.00,30.2,27.6,00.0,39.0,31.8,24.7,0000.0,0011.05,0003.81,0002.93
2022-09-16 05:28:00,,0828.1,4.99,0.00,30.1,27.8,00.0,39.0,31.8,24.8,0000.0,0010.71,0003.82,0002.94
2022-09-16 05:29:00,,0828.2,4.99,0.00,30.1,28.0,00.0,39.0,31.8,25.8,0000.0,0010.83,0003.85,0002.98
2022-09-16 05:30:00,,0828.1,5.01,0.00,30.1,28.2,00.0,38.9,31.9,25.4,0000.0,0009.99,0003.84,0003.03
2022-09-16 05:31:00,,0828.1,5.00,0.00,30.1,28.3,00.0,38.9,31.9,24.6,0000.0,0009.21,0003.81,0003.02
2022-09-16 05:32:00,,0828.2,4.99,0.00,30.1,28.4,00.0,38.9,31.9,24.0,0000.0,0008.90,0003.70,0002.97
2022-09-16 05:33:00,,0828.3,5.00,0.00,30.1,28.5,00.0,38.9,31.9,24.1,0000.0,0008.77,0003.64,0002.91
2022-09-16 05:34:00,,0828.2,5.00,0.00,30.1,28.5,00.0,38.9,31.9,24.3,0000.0,0008.77,0003.61,0002.88
2022-09-16 05:35:00,,0828.2,4.99,0.00,30.1,28.6,00.0,38.9,31.9,24.5,0000.0,0008.33,0003.58,0002.86
2022-09-16 05:36:00,,0828.2,5.01,0.00,30.1,28.6,00.0,38.9,32.0,24.2,0000.0,0007.19,0003.56,0002.86
2022-09-16 05:37:00,,0828.2,4.99,0.00,30.1,28.7,00.0,38.9,32.0,24.4,0000.0,0007.44,0003.56,0002.85
2022-09-16 05:38:00,,0828.2,5.01,0.00,30.1,28.7,00.0,38.9,32.0,24.4,0000.0,0007.97,0003.57,0002.86
2022-09-16 05:39:00,,0828.3,4.99,0.00,30.2,28.7,00.0,38.9,32.0,23.8,0000.0,0008.08,0003.55,0002.83
2022-09-16 05:40:00,,0828.2,5.01,0.00,30.2,28.8,00.0,38.9,32.0,23.6,0000.0,0008.00,0003.48,0002.79
2022-09-16 05:41:00,,0828.2,4.99,0.00,30.2,28.8,00.0,38.9,32.0,23.6,0000.0,0008.66,0003.45,0002.73
2022-09-16 05:42:00,,0828.2,5.00,0.00,30.2,28.8,00.0,38.9,32.0,23.5,0000.0,0009.22,0003.45,0002.71
2022-09-16 05:43:00,,0828.2,5.00,0.00,30.2,28.9,00.0,38.9,32.0,23.5,0000.0,0009.24,0003.45,0002.71
2022-09-16 05:44:00,,0828.3,4.99,0.00,30.2,28.9,00.0,39.0,32.1,23.5,0000.0,0009.36,0003.46,0002.71
2022-09-16 05:45:00,,0828.2,5.01,0.00,30.2,28.9,00.0,39.0,32.1,23.3,0000.0,0009.17,0003.45,0002.69
2022-09-16 05:46:00,,0828.2,4.98,0.00,30.3,28.9,00.0,39.0,32.1,23.3,0000.0,0009.25,0003.46,0002.67
2022-09-16 05:47:00,,0828.2,4.99,0.00,30.3,29.0,00.0,39.0,32.1,23.2,0000.0,0009.32,0003.45,0002.64
2022-09-16 05:48:00,,0828.2,5.01,0.00,30.3,29.0,00.0,39.0,32.1,23.1,0000.0,0009.07,0003.46,0002.62
2022-09-16 05:49:00,,0828.2,4.99,0.00,30.3,29.0,00.0,39.0,32.1,23.1,0000.0,0008.59,0003.43,0002.60
2022-09-16 05:50:00,,0828.2,5.00,0.00,30.3,29.0,00.0,39.0,32.1,23.0,0000.0,0008.92,0003.42,0002.60
2022-09-16 05:51:00,,0828.2,4.99,0.00,30.3,29.0,00.0,39.0,32.2,23.0,0000.0,0009.18,0003.44,0002.62
2022-09-16 05:52:00,,0828.2,5.00,0.00,30.3,29.0,00.0,39.0,32.2,23.1,0000.0,0009.78,0003.48,0002.65
2022-09-16 05:53:00,,0828.2,4.99,0.00,30.4,29.0,00.0,39.1,32.2,23.1,0000.0,0009.01,0003.47,0002.66
2022-09-16 05:54:00,,0828.2,4.99,0.00,30.4,29.0,00.0,39.1,32.2,23.1,0000.0,0009.74,0003.48,0002.69
2022-09-16 05:55:00,,0828.2,5.01,0.00,30.4,29.0,00.0,39.1,32.2,23.2,0000.0,0009.75,0003.51,0002.72
2022-09-16 05:56:00,,0828.2,5.00,0.00,30.4,29.1,00.0,39.1,32.2,23.0,0000.0,0009.75,0003.51,0002.75
2022-09-16 05:57:00,,0828.2,5.01,0.00,30.4,29.1,00.0,39.1,32.2,23.0,0000.0,0009.67,0003.50,0002.76
2022-09-16 05:58:00,,0828.3,4.99,0.00,30.4,29.1,00.0,39.1,32.3,22.9,0000.0,0009.65,0003.49,0002.78
2022-09-16 05:59:00,,0828.1,5.01,0.00,30.4,29.1,00.0,39.1,32.3,22.9,0000.0,0010.31,0003.46,0002.79
